Airfield :







YOU CAN JOIN US ON...

 
LOGIN :

Register | Disclaimer

   EN    FR    IT 

 









Legend :    VFR   Marginal VFR   IFR   Intensive IFR   Very Intensive IFR
Visi :
Ceiling :
>= 8 km
>= 3000ft
5 to 8 km
1000 to 3000 ft
1500m to 5 km
500 to 1000 ft
800 to 1500m
200 to 500 ft
< 800m
< 200 ft
Symbols :   Thunderstorms  Fog  Heavy snow  Heavy precipitations  Wind > 20 kt






- Airport Elevation : 48 ft
- IATA code : REK


BIRK - Reykjavik

CURRENT METAR :
  • 291900Z 10007KT 9999 VCSH FEW021 BKN030 BKN078 06/03 Q0983

EXPIRED METARs :
  • 291800Z 11010KT 9999 VCSH FEW019 SCT024 BKN055 07/04 Q0983
  • 291700Z 11011KT 9999 VCSH FEW019 OVC028 07/05 Q0983 RERA

TAF TAF BIRK
Valid from the 29 at 18:00 until the 30 at 18:00 UTC


291620Z 2918/3018 11013KT 9999 -SHRA BKN024 TX07/2918Z TN03/3009Z
TEMPO 2919/3009 6000 RA BKN014
PROB40
TEMPO 3008/3011 BKN008



MET'MAP, your aeronautical weather chart ! - Copyright ORBIFLY December 2007 - Disclaimer

ORBIFLY MET'MAP TEAM :

Programming & Development : Alexandra Zaïnal
Concept & original design : Baudouin d'Aumeries
Assistance for programming : Marc-Olivier Méhu
Technical & hardware support : Manuel Goepfert

Contact : metmap@orbifly.com




SOURCES & CREDITS :

   NOAA